Flag for Russia Weather past 2 weeks in Pyatigorsk, Russia

Now
52 °F

Sprinkles. Mostly cloudy.


Feels Like: 47 °F
Forecast: 48 / 55 °F
Wind: 15 mph from Northwest

Location: Mineral'Nye Vody


UV Index: 0 (Low)

Visibility: N/A


Pressure: 29.98 "Hg

Humidity: 94%

Dew point: 50 °F

Location of PyatigorskLocation

Historic Weather in Pyatigorsk

°F

Pyatigorsk temperature yesterday

Maximum temperature yesterday: 75 °F (at 12:30 PM)
Minimum temperature yesterday: 50 °F (at 6:30 AM)
Average temperature yesterday: 60 °F

Past Weeks' High & Low Weather Summary

 TemperatureHumidityPressure
High79 °F (Apr 19, 4:30 PM)100% (Apr 8, 11:00 PM)30.39 "Hg (Apr 8, 11:00 PM)
Low32 °F (Apr 6, 8:00 AM)20% (Apr 6, 4:30 PM)29.83 "Hg (Apr 8, 3:00 PM)
Average53 °F67%30.01 "Hg
* Reported Apr 6 8:00 AM — Apr 21 8:30 AM, Pyatigorsk, Weather by CustomWeather, © 2014

Note: Actual official high and low records may vary slightly from our data, if they occured in-between our weather recording intervals... More about our weather records

Advertising

Historic Weather Conditions — Data for Previous 24 hours

 ConditionsComfort  
Time TempWeatherWind HumidityBarometerVisibility
8:30 AM
Apr 21
52 °FSprinkles. Overcast.15 mph88%29.98 "HgN/A
8:00 AM52 °FSprinkles. Partly sunny.10 mph88%29.98 "HgN/A
7:30 AM54 °FSprinkles. Partly sunny.8 mph82%29.98 "HgN/A
6:30 AM52 °FPartly cloudy.13 mph82%29.95 "HgN/A
6:00 AM50 °FPassing clouds.8 mph88%29.95 "HgN/A
5:30 AM50 °FPassing clouds.10 mph88%29.95 "HgN/A
5:00 AM50 °FPassing clouds.13 mph82%29.95 "HgN/A
4:30 AM52 °FPassing clouds.13 mph77%29.95 "HgN/A
4:00 AM52 °FPassing clouds.13 mph82%29.95 "HgN/A
3:30 AM52 °FPassing clouds.13 mph82%29.95 "HgN/A
3:00 AM52 °FPassing clouds.10 mph82%29.95 "HgN/A
2:30 AM50 °FPassing clouds.10 mph88%29.95 "HgN/A
2:00 AM50 °FPassing clouds.8 mph88%29.95 "HgN/A
1:00 AM50 °FPassing clouds.6 mph82%29.95 "HgN/A
12:30 AM50 °FPassing clouds.8 mph82%29.95 "HgN/A
12:00 AM50 °FPassing clouds.8 mph82%29.95 "HgN/A
11:30 PM
Apr 20
54 °FPassing clouds.6 mph72%29.95 "HgN/A
11:00 PM54 °FPartly cloudy.8 mph72%29.98 "HgN/A
10:30 PM54 °FPartly cloudy.6 mph72%29.98 "HgN/A
10:00 PM55 °FPartly cloudy.3 mph67%29.98 "HgN/A
9:30 PM54 °FPartly cloudy.3 mph72%29.98 "HgN/A
9:00 PM57 °FPartly cloudy.3 mph63%29.98 "HgN/A
8:30 PM59 °FBroken clouds.1 mph59%29.98 "HgN/A
8:00 PM61 °FBroken clouds.3 mph55%29.95 "HgN/A
7:30 PM64 °FPartly sunny.1 mph43%29.95 "HgN/A
7:00 PM66 °FPartly sunny.6 mph43%29.95 "HgN/A
6:30 PM66 °FPartly sunny.8 mph49%29.95 "HgN/A
6:00 PM68 °FPartly sunny.13 mph53%29.95 "HgN/A
5:30 PM68 °FPartly sunny.13 mph53%29.95 "HgN/A
5:00 PM70 °FPartly sunny.13 mph53%29.95 "HgN/A
4:30 PM70 °FPartly sunny.10 mph53%29.95 "HgN/A
4:00 PM72 °FPartly sunny.13 mph50%29.95 "HgN/A
3:30 PM73 °FPartly sunny.15 mph47%29.95 "HgN/A
3:00 PM73 °FPartly sunny.17 mph47%29.95 "HgN/A
2:30 PM73 °FPartly sunny.13 mph44%29.95 "HgN/A
2:00 PM75 °FPartly sunny.13 mph41%29.95 "HgN/A
1:30 PM72 °FPartly sunny.22 mph50%29.95 "HgN/A
1:00 PM72 °FPartly sunny.26 mph47%29.95 "HgN/A
12:30 PM75 °FBroken clouds.13 mph39%29.92 "HgN/A
12:00 PM72 °FBroken clouds.8 mph50%29.92 "HgN/A
11:30 AM68 °FPartly sunny.8 mph56%29.95 "HgN/A
11:00 AM64 °FScattered clouds.6 mph60%29.92 "HgN/A
10:30 AM61 °FScattered clouds.3 mph63%29.92 "HgN/A
10:00 AM59 °FPartly sunny.1 mph63%29.92 "HgN/A
Weather by CustomWeather, © 2014

See weather overview